Weather History for KMPV - September, 2012

Change the Weather History Date:

Saturday, September 22, 2012

  Actual Average Record
Temperature  
Mean Temperature 58 °F 55 °F  
Max Temperature 69 °F 66 °F 87 °F (1965)
Min Temperature 47 °F 44 °F 29 °F (1962)
Degree Days  
Heating Degree Days 7 10  
Month to date heating degree days 142 149  
Since 1 July heating degree days 203 257  
Cooling Degree Days 0 0  
Month to date cooling degree days 12 16  
Year to date cooling degree days 291 260  
Growing Degree Days 8 (Base 50)    
Moisture  
Dew Point 53 °F    
Average Humidity 81    
Maximum Humidity 100    
Minimum Humidity 61    
Precipitation  
Precipitation 0.42 in 0.12 in 1.61 in (1981)
Month to date precipitation 4.37 2.18  
Year to date precipitation 24.93 26.98  
Sea Level Pressure  
Sea Level Pressure 29.93 in    
Wind  
Wind Speed 7 mph (South)    
Max Wind Speed 18 mph    
Max Gust Speed 23 mph    
Visibility 9 miles    
Events Rain    
T = Trace of Precipitation, MM = Missing Value Source: NWS Daily Summary

Daily Weather History Graph

Daily Weather History Graph

Search for Another Location

Airport or City:

Trip Planner

Search our weather history database for the weather conditions in past years. The results will help you decide how hot, cold, wet, or windy it might be!

Date:

Astronomy

Sep. 22, 2012 Rise Set
Actual Time 6:37 AM EDT 6:46 PM EDT
Civil Twilight 6:09 AM EDT 7:15 PM EDT
Nautical Twilight 5:35 AM EDT 7:49 PM EDT
Astronomical Twilight 5:00 AM EDT 8:24 PM EDT
Moon 2:06 PM EDT (9/22) 11:35 PM EDT (9/22)
Length of Visible Light 13h 06m
Length of Day
12h 08m
Waxing Crescent, 48% of the Moon is Illuminated
Sep 22
Waxing Crescent
Sep 22
First Quarter
Sep 29
Full
Oct 8
Last Quarter
Oct 15
New

Hourly Weather History & Observations

Time (EDT) Temp. Dew Point Humidity Pressure Visibility Wind Dir Wind Speed Gust Speed Precip Events Conditions
12:51 AM 51.1 °F 48.9 °F 92% 30.07 in 10.0 mi Calm Calm - N/A   Partly Cloudy
1:08 AM 51.8 °F 48.2 °F 88% 30.06 in 10.0 mi Calm Calm - N/A   Mostly Cloudy
1:51 AM 51.1 °F 48.9 °F 92% 30.05 in 10.0 mi Calm Calm - N/A   Mostly Cloudy
2:51 AM 52.0 °F 50.0 °F 93% 30.04 in 10.0 mi Calm Calm - N/A   Overcast
3:39 AM 51.8 °F 50.0 °F 94% 30.03 in 10.0 mi SE 4.6 mph - N/A   Overcast
3:51 AM 52.0 °F 50.0 °F 93% 30.03 in 10.0 mi SE 4.6 mph - N/A   Overcast
4:51 AM 50.0 °F 48.9 °F 96% 30.00 in 10.0 mi SSE 4.6 mph - N/A   Mostly Cloudy
4:58 AM 50.0 °F 48.2 °F 94% 30.00 in 10.0 mi South 4.6 mph - N/A   Scattered Clouds
5:51 AM 48.9 °F 48.0 °F 97% 30.00 in 10.0 mi South 4.6 mph - N/A   Clear
6:51 AM 48.0 °F 46.0 °F 93% 30.00 in 10.0 mi South 4.6 mph - N/A   Clear
7:51 AM 50.0 °F 48.0 °F 93% 29.99 in 10.0 mi South 3.5 mph - N/A   Clear
8:51 AM 53.1 °F 48.0 °F 83% 29.98 in 10.0 mi South 6.9 mph - N/A   Clear
9:51 AM 57.2 °F 50.0 °F 77% 29.94 in 10.0 mi South 9.2 mph 17.3 mph N/A   Clear
10:51 AM 61.0 °F 51.1 °F 70% 29.92 in 10.0 mi South 13.8 mph 21.9 mph N/A   Clear
11:51 AM 63.0 °F 52.0 °F 67% 29.90 in 10.0 mi SSW 11.5 mph 18.4 mph N/A   Partly Cloudy
12:51 PM 66.0 °F 53.1 °F 63% 29.88 in 10.0 mi SSE 15.0 mph 20.7 mph N/A   Clear
1:51 PM 66.0 °F 54.0 °F 65% 29.85 in 10.0 mi SSW 12.7 mph 18.4 mph N/A   Clear
2:51 PM 69.1 °F 55.9 °F 63% 29.83 in 10.0 mi South 13.8 mph - N/A   Scattered Clouds
3:51 PM 66.9 °F 55.9 °F 68% 29.83 in 10.0 mi South 9.2 mph - N/A   Overcast
4:51 PM 66.9 °F 55.9 °F 68% 29.83 in 10.0 mi South 12.7 mph - N/A   Clear
5:51 PM 64.0 °F 55.9 °F 75% 29.82 in 10.0 mi South 6.9 mph 17.3 mph N/A   Clear
6:51 PM 63.0 °F 57.0 °F 81% 29.83 in 10.0 mi Variable 5.8 mph - N/A   Mostly Cloudy
7:25 PM 60.8 °F 57.2 °F 88% 29.85 in 7.0 mi Variable 6.9 mph - 0.00 in Rain Light Rain
7:42 PM 60.8 °F 59.0 °F 94% 29.85 in 2.5 mi Calm Calm - 0.07 in Rain Heavy Rain
7:51 PM 60.1 °F 59.0 °F 96% 29.86 in 4.0 mi SE 3.5 mph - 0.09 in Rain Light Rain
8:51 PM 59.0 °F 57.9 °F 96% 29.87 in 5.0 mi South 4.6 mph - 0.09 in Rain Rain
9:51 PM 57.9 °F 57.0 °F 97% 29.87 in 4.0 mi Calm Calm - 0.05 in Rain Light Rain
10:51 PM 57.9 °F 55.9 °F 93% 29.87 in 10.0 mi SSW 3.5 mph - 0.04 in Rain Light Rain
11:51 PM 57.0 °F 55.0 °F 93% 29.87 in 7.0 mi Calm Calm - 0.06 in Rain Light Rain